CW5113 Weather Reports


Display with metric or nautical units.
time (UTC)temp
F
wind
direction
speed
MPH
gust
MPH
rain 1hr
in
rain 24hr
in
rain mn
in
humidity
%
barometer
mb
20240522145955 0 180 3.0 6.0 0.00 0.38 0.08 1011.7
20240522144911 0 248 4.0 9.0 0.00 0.38 0.08 1011.7
20240522143820 0 225 4.0 6.0 0.00 0.38 0.08 1011.6
20240522142739 0 180 2.0 5.0 0.00 0.38 0.08 1011.6
20240522141650 0 248 2.0 2.0 0.00 0.38 0.08 1011.9
20240522140608 0 158 3.0 6.0 0.00 0.38 0.08 1011.9
20240522135518 0 113 4.0 11.0 0.00 0.38 0.08 1011.5
20240522134432 0 270 5.0 9.0 0.00 0.38 0.08 1011.5
20240522133848 0 270 4.0 7.0 0.00 0.38 0.08 1011.4
20240522132804 0 180 4.0 9.0 0.00 0.38 0.08 1011.4
20240522131219 0 248 4.0 11.0 0.00 0.38 0.08 1011.4
20240522130131 0 180 4.0 9.0 0.00 0.38 0.08 1011.4
20240522125043 0 270 4.0 9.0 0.00 0.38 0.08 1011.2
20240522124000 0 135 2.0 8.0 0.00 0.38 0.08 1010.9
20240522122919 0 248 4.0 6.0 0.00 0.38 0.08 1010.9
20240522121830 0 180 4.0 9.0 0.00 0.38 0.08 1011.1
20240522120744 0 248 3.0 7.0 0.00 0.38 0.08 1011.1
20240522120702 0 203 3.0 4.0 0.00 0.38 0.08 1010.9
20240522114615 0 248 3.0 6.0 0.00 0.38 0.08 1010.9
20240522113531 0 225 3.0 10.0 0.00 0.38 0.08 1010.7
20240522112446 0 180 4.0 7.0 0.00 0.38 0.08 1010.7
20240522111356 0 248 4.0 9.0 0.00 0.38 0.08 1010.4
20240522110813 0 248 2.0 6.0 0.00 0.38 0.08 1010.4
20240522105225 0 248 2.0 6.0 0.00 0.38 0.08 1010.4
20240522104141 0 225 4.0 7.0 0.00 0.38 0.08 1010.4
20240522103054 0 158 2.0 5.0 0.00 0.38 0.08 1010.0
20240522102009 0 248 3.0 6.0 0.00 0.38 0.08 1010.0
20240522101424 0 270 4.0 7.0 0.00 0.38 0.08 1010.0
20240522095836 0 315 4.0 11.0 0.00 0.38 0.08 1009.5
20240522095253 0 248 3.0 9.0 0.00 0.38 0.08 1009.5
20240522093703 0 180 3.0 5.0 0.00 0.38 0.08 1009.4
20240522092619 0 248 2.0 8.0 0.00 0.38 0.08 1009.4
20240522091533 0 225 4.0 9.0 0.00 0.38 0.08 1009.4
20240522090450 0 248 4.0 14.0 0.00 0.38 0.08 1009.4
20240522085403 0 338 4.0 8.0 0.00 0.38 0.08 1009.2
20240522084319 0 315 4.0 10.0 0.00 0.38 0.08 1009.2
20240522083734 0 248 3.0 5.0 0.00 0.38 0.08 1008.7
20240522083246 0 248 3.0 5.0 0.00 0.38 0.08 1008.7
20240522082650 0 158 1.0 7.0 0.00 0.38 0.08 1008.7
20240522081103 0 158 3.0 8.0 0.00 0.38 0.08 1008.8
20240522080033 0 180 2.0 5.0 0.00 0.38 0.08 1008.8
20240522074930 0 225 2.0 6.0 0.00 0.38 0.08 1008.7
20240522073845 0 135 2.0 6.0 0.00 0.38 0.08 1008.5
20240522072801 0 225 2.0 6.0 0.00 0.38 0.08 1008.5
20240522071713 0 135 2.0 5.0 0.00 0.38 0.08 1008.0
20240522070629 0 90 3.0 7.0 0.00 0.38 0.08 1008.0
20240522065544 0 158 3.0 10.0 0.00 0.38 0.08 1008.0
20240522065004 0 270 3.0 8.0 0.00 0.38 0.08 1008.0
20240522063414 0 270 2.0 6.0 0.00 0.38 0.08 1007.9
20240522062830 0 270 2.0 7.0 0.00 0.38 0.08 1007.9
20240522061241 0 203 3.0 4.0 0.00 0.38 0.08 1007.5
20240522060158 0 180 3.0 6.0 0.00 0.38 0.08 1007.5
20240522055113 0 248 3.0 7.0 0.00 0.38 0.08 1007.4
20240522054028 0 248 2.0 3.0 0.00 0.38 0.08 1007.4
20240522052939 0 180 2.0 6.0 0.00 0.38 0.08 1006.9
20240522051851 0 135 2.0 6.0 0.00 0.38 0.08 1006.5
20240522050807 0 248 2.0 6.0 0.00 0.38 0.08 1006.5
20240522045720 0 135 1.0 4.0 0.00 0.38 0.08 1006.3
20240522044638 0 180 2.0 6.0 0.00 0.38 0.08 1006.3
20240522044048 0 90 1.0 3.0 0.00 0.38 0.08 1006.2
20240522042503 0 315 2.0 6.0 0.00 0.38 0.08 1006.2
20240522041416 0 203 3.0 7.0 0.00 0.38 0.08 1006.1
20240522040330 0 225 2.0 8.0 0.00 0.38 0.08 1006.1
20240522035248 0 158 2.0 5.0 0.00 0.38 0.08 1005.9
20240522034200 0 158 4.0 7.0 0.00 0.38 0.08 1005.9
20240522033113 0 180 2.0 4.0 0.00 0.38 0.08 1005.7
20240522032530 0 135 2.0 11.0 0.00 0.38 0.08 1005.7
20240522031442 0 248 3.0 6.0 0.00 0.38 0.08 1005.4
20240522025855 0 248 2.0 7.0 0.00 0.38 0.08 1005.5
20240522024807 0 158 3.0 5.0 0.00 0.38 0.08 1005.5
20240522024225 0 135 2.0 5.0 0.00 0.38 0.08 1005.3
20240522022637 0 180 2.0 4.0 0.03 0.38 0.08 1005.3
20240522021553 0 180 2.0 5.0 0.03 0.38 0.08 1005.1
20240522020507 0 248 3.0 6.0 0.03 0.38 0.08 1005.1
20240522015422 0 293 1.0 4.0 0.03 0.38 0.08 1005.0
20240522014337 0 203 3.0 7.0 0.03 0.38 0.08 1005.0
20240522013250 0 248 3.0 4.0 0.03 0.38 0.08 1004.9
20240522012207 0 225 4.0 8.0 0.00 0.35 0.06 1004.9
20240522011120 0 338 3.0 7.0 0.00 0.35 0.06 1004.7
20240522010036 0 158 0.0 0.0 0.00 0.35 0.06 1004.7
20240522004949 0 113 0.0 0.0 0.00 0.35 0.06 1004.8
20240522003905 0 45 0.0 0.0 0.00 0.35 0.06 1005.2
20240522003318 0 135 0.0 0.0 0.00 0.35 0.06 1005.2
20240522002232 0 23 0.0 0.0 0.03 0.35 0.06 1005.2
20240522000645 0 338 0.0 0.0 0.03 0.35 0.06 1005.2
20240521235600 0 113 0.0 0.0 0.03 0.35 0.06 1005.2
20240521234516 0 23 0.0 2.0 0.03 0.35 0.06 1005.2
20240521233431 0 23 0.0 2.0 0.03 0.35 0.06 1005.5
20240521232344 0 315 0.0 0.0 0.00 0.33 0.03 1005.5
20240521231300 0 45 0.0 3.0 0.03 0.33 0.03 1006.0
20240521230213 0 23 0.0 2.0 0.03 0.33 0.03 1006.0
20240521225126 0 23 0.0 2.0 0.03 0.33 0.03 1006.2
20240521224542 0 23 0.0 2.0 0.03 0.33 0.03 1006.2
20240521222956 0 23 1.0 5.0 0.03 0.33 0.03 1006.3
20240521221912 0 23 0.0 2.0 0.03 0.30 0.00 1006.4
20240521220824 0 23 2.0 4.0 0.03 0.30 0.00 1006.4
20240521215738 0 23 2.0 4.0 0.03 0.30 0.30 1006.8
20240521214653 0 23 2.0 6.0 0.03 0.30 0.30 1006.8
20240521214609 0 338 2.0 3.0 0.06 0.30 0.30 1007.3
20240521212522 0 0 2.0 3.0 0.03 0.27 0.30 1007.3
20240521211437 0 68 2.0 4.0 0.03 0.27 0.27 1007.4
20240521210351 0 0 1.0 2.0 0.06 0.27 0.27 1007.4
20240521205306 0 45 1.0 2.0 0.06 0.27 0.27 1008.2
20240521204219 0 338 1.0 2.0 0.11 0.24 0.24 1008.2
20240521203636 0 270 1.0 2.0 0.16 0.24 0.24 1008.4
20240521202046 0 338 1.0 3.0 0.22 0.24 0.24 1008.4
20240521200959 0 23 1.0 4.0 0.22 0.24 0.24 1008.7
20240521195916 0 270 2.0 8.0 0.19 0.22 0.22 1009.0
20240521194831 0 315 2.0 6.0 0.16 0.19 0.19 1009.0
20240521194245 0 135 3.0 8.0 0.08 0.08 0.11 1008.6
20240521192654 0 225 3.0 8.0 0.06 0.06 0.06 1008.6
20240521191624 0 225 2.0 8.0 0.03 0.03 0.03 1007.5
20240521191025 0 158 2.0 6.0 0.03 0.03 0.03 1007.5
20240521185438 0 45 0.0 4.0 0.03 0.03 0.03 1008.4
20240521184351 0 248 0.0 0.0 0.00 0.00 0.00 1008.4
20240521183312 0 68 3.0 10.0 0.00 0.00 0.00 1008.2
20240521182220 0 68 0.0 2.0 0.00 0.00 0.00 1008.2
20240521181138 0 23 0.0 0.0 0.00 0.00 0.00 1007.5
20240521180552 0 23 0.0 0.0 0.00 0.00 0.00 1007.5
20240521175011 0 45 0.0 0.0 0.00 0.00 0.00 1007.5
20240521173920 0 45 0.0 0.0 0.00 0.00 0.00 1007.8
20240521172835 0 225 0.0 2.0 0.00 0.00 0.00 1007.8
20240521171749 0 45 0.0 7.0 0.00 0.00 0.00 1007.5
20240521171203 0 68 0.0 3.0 0.00 0.00 0.00 1007.5
20240521170117 0 68 1.0 2.0 0.00 0.00 0.00 1007.5
20240521164530 0 0 0.0 10.0 0.00 0.00 0.00 1007.5
20240521163446 0 135 0.0 0.0 0.00 0.00 0.00 1007.7
20240521162900 0 113 0.0 0.0 0.00 0.00 0.00 1007.7
20240521161314 0 68 0.0 0.0 0.00 0.00 0.00 1007.6
20240521160727 0 23 0.0 0.0 0.00 0.00 0.00 1007.6
20240521155144 0 68 0.0 5.0 0.00 0.00 0.00 1007.9
20240521154059 0 45 0.0 2.0 0.00 0.00 0.00 1007.9
20240521154016 0 23 0.0 0.0 0.00 0.00 0.00 1008.3
20240521151925 0 90 0.0 1.0 0.00 0.00 0.00 1008.3